QPF
0.06 0.06 0.04 0.03 0.03 0.04 0.03 0.03 0.03 0.04 0.03 0.02 0.02 0.01 0.01 0.00 0.01 0.01 0.01 0.01 0.01 0.02 0.03 0.05 0.09 0.13 0.09 0.06 0.06 0.04 0.03 0.03 0.03 0.03 0.03 0.02 0.02 0.02 0.03 0.04 0.05 0.06 0.05
0.05 0.05 0.05 0.04 0.04 0.04 0.04 0.04 0.04 0.04 0.03 0.02 0.02 0.02 0.01 0.01 0.01 0.00 0.00 0.01 0.01 0.01 0.02 0.03 0.04 0.07 0.10 0.11 0.08 0.05 0.03 0.02 0.02 0.03 0.03 0.04 0.03 0.02 0.03 0.03 0.03 0.05 0.06
0.03 0.04 0.05 0.03 0.03 0.04 0.04 0.04 0.06 0.05 0.04 0.02 0.01 0.01 0.01 0.01 0.01 0.01 0.00 0.00 0.01 0.01 0.01 0.03 0.04 0.06 0.05 0.08 0.09 0.08 0.05 0.04 0.03 0.02 0.03 0.04 0.04 0.04 0.04 0.04 0.04 0.04 0.05
0.02 0.03 0.04 0.04 0.02 0.03 0.04 0.06 0.07 0.08 0.05 0.03 0.02 0.01 0.01 0.00 0.01 0.01 0.00 0.00 0.00 0.00 0.01 0.03 0.07 0.06 0.05 0.06 0.07 0.08 0.07 0.06 0.05 0.04 0.02 0.03 0.03 0.03 0.03 0.04 0.05 0.06 0.07
0.02 0.02 0.03 0.04 0.03 0.03 0.04 0.06 0.08 0.09 0.07 0.04 0.02 0.01 0.01 0.01 0.01 0.01 0.01 0.01 0.00 0.00 0.01 0.04 0.06 0.05 0.06 0.09 0.08 0.06 0.05 0.05 0.05 0.04 0.03 0.03 0.03 0.02 0.03 0.03 0.04 0.05 0.06
0.02 0.02 0.02 0.04 0.05 0.04 0.04 0.05 0.07 0.10 0.09 0.07 0.04 0.02 0.01 0.01 0.01 0.01 0.01 0.01 0.01 0.01 0.02 0.03 0.03 0.05 0.08 0.08 0.06 0.05 0.04 0.04 0.04 0.04 0.03 0.03 0.04 0.03 0.03 0.03 0.03 0.04 0.05
0.02 0.02 0.01 0.02 0.04 0.05 0.04 0.05 0.07 0.09 0.09 0.08 0.07 0.04 0.02 0.01 0.01 0.01 0.01 0.01 0.02 0.02 0.02 0.02 0.02 0.02 0.02 0.02 0.03 0.03 0.03 0.03 0.04 0.04 0.04 0.04 0.04 0.04 0.04 0.03 0.04 0.04 0.05
0.03 0.02 0.01 0.01 0.03 0.05 0.05 0.06 0.08 0.09 0.09 0.08 0.07 0.05 0.04 0.03 0.02 0.01 0.01 0.01 0.01 0.01 0.01 0.01 0.01 0.01 0.01 0.01 0.01 0.01 0.02 0.02 0.03 0.04 0.04 0.04 0.05 0.05 0.05 0.06 0.07 0.07 0.06
0.06 0.04 0.02 0.02 0.02 0.03 0.05 0.06 0.09 0.09 0.09 0.09 0.07 0.05 0.04 0.03 0.02 0.01 0.01 0.01 0.01 0.01 0.01 0.01 0.01 0.00 0.00 0.01 0.01 0.01 0.01 0.01 0.02 0.03 0.04 0.04 0.04 0.04 0.05 0.06 0.07 0.08 0.09
0.06 0.06 0.04 0.03 0.03 0.03 0.03 0.05 0.09 0.09 0.08 0.08 0.07 0.05 0.04 0.03 0.03 0.02 0.01 0.01 0.01 0.01 0.01 0.01 0.01 0.01 0.01 0.01 0.01 0.01 0.01 0.01 0.01 0.02 0.03 0.04 0.05 0.05 0.05 0.06 0.07 0.07 0.07
0.06 0.06 0.06 0.04 0.03 0.04 0.03 0.04 0.07 0.09 0.08 0.07 0.06 0.04 0.03 0.03 0.03 0.03 0.02 0.02 0.01 0.01 0.01 0.01 0.01 0.01 0.01 0.01 0.01 0.01 0.02 0.01 0.01 0.02 0.02 0.04 0.05 0.06 0.07 0.07 0.07 0.07 0.07
0.07 0.08 0.08 0.06 0.04 0.04 0.04 0.04 0.06 0.08 0.09 0.06 0.05 0.03 0.02 0.02 0.03 0.04 0.03 0.02 0.02 0.01 0.01 0.01 0.01 0.01 0.01 0.01 0.02 0.02 0.01 0.01 0.02 0.02 0.03 0.03 0.04 0.06 0.08 0.07 0.06 0.06 0.06
0.06 0.08 0.09 0.08 0.05 0.03 0.04 0.04 0.05 0.07 0.08 0.06 0.05 0.03 0.02 0.01 0.02 0.03 0.04 0.03 0.03 0.02 0.02 0.02 0.01 0.01 0.01 0.01 0.01 0.01 0.01 0.01 0.02 0.02 0.03 0.03 0.04 0.05 0.07 0.09 0.07 0.07 0.07
0.03 0.06 0.09 0.10 0.08 0.04 0.03 0.04 0.04 0.07 0.08 0.06 0.04 0.03 0.02 0.01 0.01 0.02 0.02 0.03 0.03 0.03 0.02 0.02 0.02 0.02 0.02 0.01 0.01 0.01 0.01 0.01 0.02 0.02 0.02 0.02 0.03 0.04 0.05 0.07 0.08 0.07 0.07
0.03 0.03 0.06 0.09 0.10 0.07 0.04 0.04 0.04 0.05 0.08 0.07 0.05 0.03 0.02 0.02 0.01 0.01 0.02 0.03 0.04 0.04 0.03 0.02 0.02 0.02 0.02 0.02 0.02 0.01 0.01 0.01 0.01 0.02 0.02 0.02 0.02 0.02 0.04 0.04 0.05 0.05 0.06
0.03 0.03 0.05 0.08 0.09 0.10 0.07 0.05 0.04 0.03 0.06 0.09 0.07 0.04 0.02 0.02 0.02 0.02 0.02 0.02 0.03 0.04 0.03 0.02 0.03 0.03 0.03 0.03 0.03 0.02 0.01 0.01 0.01 0.01 0.02 0.01 0.02 0.02 0.02 0.03 0.04 0.04 0.05
0.03 0.03 0.04 0.07 0.10 0.10 0.09 0.07 0.05 0.04 0.04 0.08 0.10 0.07 0.04 0.02 0.02 0.02 0.02 0.02 0.02 0.03 0.03 0.02 0.01 0.02 0.03 0.03 0.03 0.03 0.02 0.02 0.01 0.01 0.01 0.01 0.01 0.01 0.02 0.02 0.03 0.04 0.04
0.03 0.02 0.03 0.04 0.07 0.10 0.11 0.09 0.06 0.05 0.04 0.05 0.08 0.10 0.09 0.06 0.03 0.02 0.03 0.03 0.03 0.02 0.02 0.02 0.01 0.01 0.02 0.03 0.03 0.03 0.02 0.02 0.02 0.01 0.01 0.01 0.01 0.01 0.01 0.02 0.02 0.03 0.04
0.03 0.01 0.01 0.02 0.03 0.06 0.10 0.10 0.07 0.05 0.04 0.04 0.05 0.07 0.09 0.10 0.08 0.05 0.03 0.03 0.04 0.03 0.03 0.02 0.02 0.01 0.02 0.03 0.04 0.04 0.03 0.02 0.02 0.01 0.01 0.00 0.01 0.01 0.01 0.01 0.01 0.02 0.02
0.01 0.01 0.01 0.01 0.02 0.04 0.06 0.09 0.09 0.06 0.05 0.04 0.04 0.04 0.05 0.07 0.08 0.08 0.07 0.06 0.05 0.05 0.05 0.05 0.03 0.02 0.02 0.03 0.05 0.04 0.04 0.02 0.01 0.01 0.01 0.01 0.01 0.01 0.01 0.01 0.01 0.01 0.02
0.00 0.01 0.01 0.01 0.01 0.03 0.04 0.05 0.07 0.07 0.05 0.04 0.04 0.03 0.03 0.05 0.06 0.06 0.06 0.06 0.07 0.08 0.07 0.06 0.05 0.04 0.03 0.04 0.05 0.05 0.04 0.02 0.01 0.01 0.01 0.01 0.01 0.01 0.01 0.02 0.02 0.02 0.02
0.00 0.00 0.00 0.01 0.01 0.02 0.03 0.04 0.04 0.05 0.05 0.04 0.04 0.04 0.03 0.04 0.04 0.04 0.05 0.05 0.06 0.07 0.08 0.08 0.07 0.06 0.04 0.04 0.04 0.05 0.04 0.03 0.02 0.01 0.02 0.02 0.03 0.04 0.03 0.02 0.03 0.02 0.03
0.00 0.00 0.00 0.00 0.02 0.02 0.03 0.03 0.04 0.04 0.04 0.04 0.04 0.03 0.03 0.03 0.03 0.02 0.03 0.04 0.04 0.05 0.07 0.08 0.08 0.07 0.05 0.05 0.05 0.05 0.04 0.03 0.02 0.01 0.02 0.03 0.04 0.04 0.04 0.04 0.04 0.03 0.03
0.00 0.00 0.00 0.00 0.01 0.02 0.03 0.03 0.03 0.03 0.02 0.02 0.02 0.02 0.02 0.02 0.02 0.02 0.03 0.03 0.03 0.03 0.04 0.05 0.06 0.05 0.06 0.07 0.07 0.06 0.06 0.04 0.02 0.02 0.02 0.04 0.05 0.06 0.05 0.05 0.05 0.04 0.03
0.00 0.00 0.00 0.00 0.01 0.01 0.02 0.03 0.05 0.04 0.02 0.02 0.01 0.01 0.01 0.01 0.03 0.04 0.05 0.05 0.04 0.03 0.04 0.05 0.05 0.06 0.08 0.10 0.11 0.11 0.10 0.08 0.05 0.03 0.03 0.04 0.05 0.06 0.06 0.06 0.06 0.05 0.04
0.00 0.00 0.00 0.00 0.00 0.01 0.01 0.02 0.04 0.06 0.04 0.02 0.01 0.01 0.01 0.01 0.03 0.04 0.05 0.05 0.05 0.03 0.04 0.05 0.05 0.06 0.06 0.07 0.08 0.09 0.09 0.08 0.06 0.04 0.03 0.04 0.05 0.06 0.07 0.06 0.07 0.06 0.05
MSLP
1026.58 1026.52 1026.40 1026.23 1026.01 1025.73 1025.43 1025.11 1024.81 1024.53 1024.29 1024.08 1023.91 1023.78 1023.68 1023.60 1023.53 1023.47 1023.39 1023.28 1023.11 1022.88 1022.58 1022.22 1021.81 1021.39 1020.97 1020.60 1020.28 1020.02 1019.81 1019.62 1019.44 1019.24 1018.99 1018.71 1018.38 1018.04 1017.70 1017.38 1017.09 1016.83 1016.61
1026.72 1026.69 1026.59 1026.43 1026.21 1025.93 1025.63 1025.32 1025.02 1024.75 1024.53 1024.35 1024.21 1024.12 1024.06 1024.03 1024.01 1023.99 1023.96 1023.89 1023.77 1023.57 1023.30 1022.96 1022.55 1022.12 1021.68 1021.27 1020.92 1020.62 1020.37 1020.15 1019.95 1019.74 1019.49 1019.19 1018.86 1018.49 1018.12 1017.74 1017.39 1017.06 1016.76
1026.81 1026.81 1026.74 1026.59 1026.39 1026.13 1025.84 1025.54 1025.25 1025.00 1024.79 1024.63 1024.52 1024.45 1024.41 1024.41 1024.42 1024.43 1024.43 1024.40 1024.32 1024.16 1023.92 1023.61 1023.22 1022.79 1022.35 1021.92 1021.53 1021.18 1020.89 1020.64 1020.41 1020.17 1019.91 1019.60 1019.26 1018.88 1018.48 1018.08 1017.68 1017.31 1016.95
1026.87 1026.91 1026.87 1026.76 1026.58 1026.35 1026.08 1025.79 1025.53 1025.29 1025.09 1024.93 1024.82 1024.75 1024.72 1024.71 1024.72 1024.75 1024.77 1024.76 1024.71 1024.59 1024.41 1024.14 1023.79 1023.39 1022.95 1022.51 1022.09 1021.71 1021.38 1021.07 1020.80 1020.53 1020.24 1019.92 1019.56 1019.18 1018.77 1018.35 1017.94 1017.54 1017.17
1026.91 1027.00 1027.01 1026.94 1026.80 1026.60 1026.35 1026.09 1025.83 1025.60 1025.40 1025.23 1025.10 1025.01 1024.94 1024.91 1024.90 1024.91 1024.93 1024.94 1024.92 1024.85 1024.72 1024.51 1024.22 1023.87 1023.47 1023.04 1022.61 1022.20 1021.82 1021.47 1021.14 1020.82 1020.49 1020.15 1019.77 1019.38 1018.97 1018.55 1018.15 1017.76 1017.39
1026.93 1027.06 1027.13 1027.11 1027.02 1026.85 1026.64 1026.40 1026.15 1025.91 1025.70 1025.50 1025.34 1025.20 1025.09 1025.01 1024.96 1024.94 1024.94 1024.95 1024.96 1024.94 1024.87 1024.73 1024.52 1024.23 1023.88 1023.49 1023.07 1022.65 1022.24 1021.84 1021.46 1021.08 1020.71 1020.32 1019.92 1019.52 1019.11 1018.70 1018.31 1017.94 1017.59
1026.87 1027.06 1027.19 1027.23 1027.19 1027.07 1026.90 1026.68 1026.44 1026.20 1025.96 1025.74 1025.53 1025.34 1025.17 1025.04 1024.93 1024.87 1024.84 1024.84 1024.86 1024.88 1024.86 1024.80 1024.67 1024.47 1024.19 1023.86 1023.47 1023.05 1022.62 1022.19 1021.76 1021.33 1020.91 1020.48 1020.06 1019.63 1019.22 1018.82 1018.45 1018.10 1017.77
1026.72 1026.96 1027.14 1027.25 1027.27 1027.21 1027.08 1026.90 1026.68 1026.44 1026.19 1025.94 1025.70 1025.46 1025.24 1025.05 1024.89 1024.78 1024.71 1024.69 1024.70 1024.74 1024.77 1024.77 1024.71 1024.59 1024.39 1024.12 1023.78 1023.39 1022.97 1022.52 1022.05 1021.59 1021.12 1020.66 1020.20 1019.76 1019.34 1018.95 1018.59 1018.26 1017.95
1026.42 1026.71 1026.95 1027.13 1027.21 1027.22 1027.15 1027.01 1026.83 1026.61 1026.37 1026.12 1025.86 1025.61 1025.36 1025.12 1024.91 1024.74 1024.63 1024.56 1024.55 1024.58 1024.62 1024.65 1024.65 1024.59 1024.47 1024.27 1023.99 1023.64 1023.24 1022.80 1022.33 1021.84 1021.34 1020.86 1020.38 1019.92 1019.50 1019.11 1018.75 1018.43 1018.13
1025.95 1026.30 1026.60 1026.84 1027.00 1027.08 1027.07 1027.00 1026.87 1026.70 1026.51 1026.29 1026.05 1025.80 1025.54 1025.29 1025.04 1024.83 1024.66 1024.53 1024.46 1024.45 1024.46 1024.49 1024.51 1024.49 1024.42 1024.27 1024.06 1023.76 1023.41 1022.99 1022.54 1022.05 1021.56 1021.06 1020.58 1020.12 1019.69 1019.30 1018.94 1018.62 1018.32
1025.34 1025.74 1026.10 1026.41 1026.64 1026.79 1026.86 1026.86 1026.81 1026.71 1026.58 1026.42 1026.24 1026.03 1025.80 1025.55 1025.29 1025.04 1024.80 1024.61 1024.46 1024.37 1024.32 1024.30 1024.30 1024.28 1024.23 1024.13 1023.97 1023.74 1023.43 1023.07 1022.65 1022.19 1021.71 1021.23 1020.76 1020.31 1019.89 1019.50 1019.14 1018.81 1018.50
1024.64 1025.07 1025.49 1025.85 1026.15 1026.37 1026.51 1026.59 1026.62 1026.61 1026.56 1026.49 1026.39 1026.26 1026.08 1025.86 1025.60 1025.32 1025.03 1024.76 1024.51 1024.32 1024.17 1024.07 1024.01 1023.97 1023.92 1023.84 1023.72 1023.54 1023.29 1022.98 1022.62 1022.21 1021.77 1021.33 1020.88 1020.45 1020.04 1019.66 1019.31 1018.97 1018.64
1023.89 1024.36 1024.81 1025.22 1025.57 1025.84 1026.05 1026.20 1026.30 1026.37 1026.42 1026.45 1026.44 1026.40 1026.29 1026.12 1025.89 1025.59 1025.26 1024.90 1024.56 1024.25 1024.00 1023.80 1023.66 1023.57 1023.49 1023.42 1023.32 1023.18 1022.98 1022.74 1022.43 1022.08 1021.69 1021.29 1020.89 1020.50 1020.11 1019.75 1019.41 1019.07 1018.73
1023.15 1023.64 1024.12 1024.55 1024.93 1025.23 1025.48 1025.67 1025.83 1025.98 1026.11 1026.23 1026.32 1026.36 1026.34 1026.23 1026.03 1025.74 1025.37 1024.96 1024.53 1024.12 1023.76 1023.47 1023.24 1023.08 1022.97 1022.88 1022.79 1022.68 1022.53 1022.34 1022.09 1021.79 1021.46 1021.11 1020.76 1020.40 1020.06 1019.73 1019.40 1019.07 1018.72
1022.47 1022.96 1023.44 1023.87 1024.24 1024.55 1024.81 1025.02 1025.22 1025.41 1025.59 1025.78 1025.95 1026.08 1026.13 1026.09 1025.93 1025.66 1025.29 1024.84 1024.36 1023.88 1023.44 1023.06 1022.76 1022.54 1022.39 1022.28 1022.19 1022.10 1021.98 1021.82 1021.61 1021.36 1021.08 1020.78 1020.47 1020.16 1019.86 1019.56 1019.26 1018.94 1018.61
1021.83 1022.31 1022.77 1023.18 1023.53 1023.82 1024.05 1024.26 1024.45 1024.65 1024.87 1025.10 1025.32 1025.51 1025.63 1025.65 1025.55 1025.31 1024.96 1024.51 1024.01 1023.50 1023.01 1022.58 1022.23 1021.97 1021.78 1021.65 1021.56 1021.47 1021.36 1021.22 1021.04 1020.83 1020.58 1020.31 1020.04 1019.77 1019.51 1019.24 1018.97 1018.69 1018.38
1021.22 1021.68 1022.10 1022.47 1022.78 1023.02 1023.22 1023.39 1023.56 1023.75 1023.96 1024.20 1024.45 1024.68 1024.84 1024.91 1024.87 1024.68 1024.37 1023.96 1023.48 1022.97 1022.48 1022.03 1021.67 1021.38 1021.18 1021.03 1020.93 1020.83 1020.72 1020.59 1020.42 1020.21 1019.98 1019.74 1019.49 1019.25 1019.02 1018.79 1018.56 1018.32 1018.04
1020.61 1021.03 1021.41 1021.74 1021.99 1022.19 1022.34 1022.47 1022.59 1022.75 1022.94 1023.17 1023.42 1023.65 1023.84 1023.95 1023.96 1023.83 1023.58 1023.22 1022.79 1022.33 1021.86 1021.44 1021.08 1020.80 1020.58 1020.42 1020.30 1020.19 1020.07 1019.92 1019.74 1019.54 1019.32 1019.08 1018.86 1018.64 1018.43 1018.24 1018.05 1017.84 1017.60
1019.98 1020.36 1020.70 1020.97 1021.19 1021.34 1021.44 1021.52 1021.61 1021.72 1021.88 1022.07 1022.30 1022.53 1022.73 1022.86 1022.90 1022.83 1022.64 1022.35 1021.99 1021.59 1021.18 1020.79 1020.46 1020.18 1019.97 1019.79 1019.65 1019.52 1019.37 1019.21 1019.02 1018.81 1018.59 1018.36 1018.15 1017.95 1017.77 1017.61 1017.45 1017.28 1017.08
1019.32 1019.66 1019.96 1020.20 1020.38 1020.50 1020.57 1020.61 1020.66 1020.73 1020.84 1021.00 1021.19 1021.39 1021.58 1021.72 1021.78 1021.75 1021.62 1021.40 1021.11 1020.77 1020.42 1020.08 1019.77 1019.50 1019.28 1019.09 1018.92 1018.77 1018.60 1018.42 1018.21 1018.00 1017.78 1017.56 1017.37 1017.19 1017.04 1016.90 1016.78 1016.64 1016.49
1018.67 1018.97 1019.24 1019.45 1019.61 1019.70 1019.75 1019.78 1019.79 1019.83 1019.90 1020.01 1020.15 1020.31 1020.47 1020.59 1020.66 1020.65 1020.56 1020.39 1020.15 1019.87 1019.57 1019.26 1018.97 1018.70 1018.47 1018.25 1018.06 1017.87 1017.68 1017.49 1017.28 1017.08 1016.87 1016.68 1016.51 1016.37 1016.24 1016.14 1016.05 1015.95 1015.83
1018.10 1018.36 1018.59 1018.78 1018.91 1018.99 1019.03 1019.04 1019.03 1019.03 1019.06 1019.12 1019.21 1019.31 1019.42 1019.51 1019.56 1019.56 1019.48 1019.34 1019.14 1018.89 1018.61 1018.32 1018.03 1017.74 1017.48 1017.24 1017.01 1016.80 1016.60 1016.40 1016.21 1016.03 1015.86 1015.71 1015.58 1015.48 1015.39 1015.33 1015.27 1015.19 1015.11
1017.66 1017.88 1018.07 1018.23 1018.34 1018.40 1018.42 1018.41 1018.38 1018.34 1018.33 1018.33 1018.36 1018.40 1018.45 1018.49 1018.51 1018.48 1018.40 1018.27 1018.08 1017.84 1017.56 1017.26 1016.94 1016.63 1016.33 1016.05 1015.79 1015.55 1015.34 1015.15 1014.99 1014.85 1014.74 1014.65 1014.59 1014.54 1014.51 1014.48 1014.44 1014.40 1014.33
1017.44 1017.60 1017.74 1017.84 1017.91 1017.94 1017.93 1017.89 1017.82 1017.75 1017.68 1017.62 1017.58 1017.56 1017.54 1017.53 1017.50 1017.44 1017.34 1017.19 1016.99 1016.74 1016.44 1016.11 1015.76 1015.41 1015.06 1014.73 1014.44 1014.18 1013.97 1013.81 1013.69 1013.61 1013.57 1013.55 1013.56 1013.58 1013.60 1013.61 1013.61 1013.59 1013.53
1017.44 1017.52 1017.59 1017.63 1017.64 1017.62 1017.56 1017.47 1017.35 1017.22 1017.09 1016.97 1016.87 1016.78 1016.70 1016.63 1016.55 1016.45 1016.32 1016.15 1015.93 1015.66 1015.33 1014.97 1014.58 1014.17 1013.78 1013.41 1013.08 1012.81 1012.60 1012.47 1012.39 1012.39 1012.42 1012.48 1012.57 1012.65 1012.72 1012.78 1012.80 1012.78 1012.74
1017.64 1017.64 1017.62 1017.58 1017.51 1017.41 1017.28 1017.13 1016.95 1016.77 1016.58 1016.39 1016.22 1016.07 1015.94 1015.82 1015.70 1015.57 1015.42 1015.22 1014.98 1014.69 1014.33 1013.93 1013.50 1013.05 1012.61 1012.20 1011.84 1011.56 1011.36 1011.25 1011.23 1011.28 1011.39 1011.53 1011.68 1011.82 1011.94 1012.02 1012.06 1012.05 1011.99
Thickness
5585 5587 5590 5592 5595 5598 5601 5604 5608 5610 5613 5615 5616 5618 5620 5622 5624 5625 5626 5626 5627 5629 5631 5633 5635 5637 5638 5639 5640 5641 5641 5642 5643 5643 5643 5644 5645 5646 5647 5647 5647 5647 5647
5573 5576 5579 5582 5584 5587 5590 5594 5597 5600 5604 5606 5608 5609 5611 5613 5615 5617 5618 5619 5620 5621 5622 5624 5627 5629 5630 5631 5633 5634 5635 5635 5636 5636 5637 5638 5639 5639 5640 5641 5641 5642 5642
5562 5565 5568 5571 5573 5576 5579 5583 5587 5591 5594 5596 5599 5600 5602 5604 5605 5607 5609 5610 5611 5612 5614 5615 5617 5619 5622 5623 5625 5627 5628 5628 5629 5629 5630 5631 5632 5633 5634 5634 5635 5636 5636
5550 5553 5556 5558 5561 5564 5568 5572 5576 5580 5583 5586 5589 5591 5593 5594 5596 5598 5599 5600 5601 5603 5604 5606 5608 5610 5612 5614 5616 5618 5619 5621 5622 5622 5623 5624 5625 5626 5627 5628 5629 5630 5630
5537 5540 5543 5546 5549 5552 5556 5560 5563 5567 5571 5575 5578 5580 5583 5585 5586 5587 5589 5590 5591 5592 5594 5596 5597 5599 5602 5604 5606 5608 5610 5611 5612 5614 5615 5616 5617 5618 5620 5621 5622 5623 5624
5524 5527 5530 5533 5536 5539 5543 5547 5550 5554 5557 5561 5565 5569 5571 5573 5575 5577 5578 5579 5579 5581 5582 5585 5587 5589 5591 5593 5595 5597 5599 5601 5603 5604 5606 5608 5609 5610 5612 5613 5615 5616 5617
5510 5513 5516 5519 5521 5525 5528 5532 5536 5541 5544 5547 5553 5558 5560 5562 5563 5564 5565 5566 5567 5568 5570 5572 5574 5577 5579 5581 5582 5584 5587 5589 5592 5594 5596 5598 5600 5602 5604 5605 5607 5609 5610
5495 5499 5502 5504 5507 5510 5514 5518 5521 5525 5528 5530 5536 5542 5548 5552 5552 5551 5551 5552 5553 5555 5556 5558 5560 5563 5565 5568 5570 5572 5574 5576 5579 5582 5585 5588 5590 5592 5595 5597 5599 5601 5603
5481 5483 5486 5489 5492 5495 5499 5502 5505 5508 5512 5514 5517 5522 5528 5535 5534 5537 5537 5537 5538 5540 5541 5543 5545 5548 5550 5553 5556 5558 5560 5562 5565 5569 5573 5576 5579 5582 5584 5587 5590 5592 5594
5467 5468 5471 5474 5477 5479 5483 5486 5489 5491 5494 5498 5501 5504 5506 5510 5513 5520 5523 5523 5523 5523 5525 5527 5530 5533 5535 5538 5541 5543 5546 5548 5551 5555 5559 5563 5566 5570 5573 5576 5579 5582 5585
5452 5454 5456 5459 5461 5463 5466 5469 5472 5475 5477 5480 5483 5487 5490 5492 5496 5499 5506 5508 5507 5508 5509 5510 5513 5516 5520 5522 5525 5528 5530 5533 5537 5540 5545 5549 5552 5556 5560 5564 5567 5571 5574
5439 5440 5442 5444 5446 5448 5451 5454 5456 5459 5461 5463 5466 5469 5471 5474 5478 5481 5486 5489 5491 5493 5493 5495 5497 5500 5503 5506 5509 5512 5514 5518 5521 5525 5529 5534 5538 5542 5546 5550 5554 5558 5561
5425 5426 5427 5429 5431 5433 5435 5438 5440 5442 5445 5447 5449 5451 5453 5456 5457 5459 5462 5467 5472 5476 5478 5480 5481 5483 5486 5489 5492 5495 5498 5502 5506 5510 5514 5518 5523 5527 5532 5536 5540 5544 5548
5410 5411 5413 5414 5416 5418 5420 5422 5425 5427 5429 5431 5433 5435 5437 5438 5439 5440 5442 5445 5451 5458 5463 5466 5466 5467 5470 5472 5476 5478 5482 5486 5489 5493 5498 5502 5507 5512 5516 5521 5525 5530 5534
5396 5397 5398 5400 5402 5404 5405 5408 5410 5412 5413 5415 5417 5419 5421 5422 5422 5423 5424 5425 5428 5437 5447 5451 5451 5452 5453 5456 5459 5461 5466 5470 5473 5477 5481 5486 5491 5496 5501 5506 5510 5515 5520
5382 5384 5385 5386 5388 5389 5391 5392 5395 5396 5398 5400 5401 5403 5405 5406 5406 5406 5407 5409 5411 5415 5424 5435 5434 5435 5435 5438 5442 5445 5449 5453 5457 5461 5466 5470 5475 5480 5485 5490 5496 5501 5506
5370 5370 5372 5373 5374 5375 5376 5378 5380 5381 5383 5385 5385 5387 5390 5390 5390 5391 5392 5394 5396 5398 5406 5416 5417 5419 5420 5423 5426 5430 5434 5439 5443 5447 5450 5454 5459 5464 5469 5475 5480 5486 5492
5357 5357 5358 5359 5360 5361 5362 5364 5365 5366 5367 5370 5371 5373 5375 5375 5375 5376 5377 5380 5382 5384 5388 5397 5402 5404 5406 5409 5412 5416 5420 5424 5429 5433 5436 5439 5444 5449 5454 5460 5465 5471 5477
5345 5345 5345 5346 5347 5348 5348 5350 5351 5352 5353 5355 5356 5358 5360 5361 5362 5362 5364 5366 5368 5371 5374 5379 5387 5390 5393 5395 5398 5402 5406 5410 5414 5418 5422 5425 5430 5435 5440 5446 5451 5457 5463
5333 5332 5332 5333 5333 5334 5335 5336 5337 5339 5340 5342 5343 5344 5346 5347 5349 5349 5351 5353 5355 5358 5361 5365 5372 5377 5381 5383 5384 5390 5394 5398 5401 5404 5407 5411 5415 5420 5426 5432 5438 5443 5448
5320 5320 5320 5320 5320 5321 5322 5322 5324 5326 5328 5329 5331 5332 5333 5334 5334 5335 5337 5340 5342 5345 5348 5353 5359 5364 5369 5371 5374 5378 5382 5385 5388 5390 5394 5398 5403 5408 5412 5418 5423 5428 5434
5308 5307 5308 5308 5308 5309 5309 5309 5310 5313 5315 5317 5319 5320 5321 5322 5323 5324 5326 5328 5329 5332 5336 5340 5347 5352 5358 5360 5362 5365 5368 5372 5377 5380 5380 5385 5388 5394 5400 5405 5410 5414 5419
5296 5296 5296 5296 5297 5297 5296 5296 5298 5299 5302 5304 5305 5307 5310 5312 5312 5313 5315 5317 5318 5321 5324 5328 5334 5341 5345 5348 5351 5355 5357 5361 5366 5368 5367 5374 5377 5382 5388 5393 5398 5401 5406
5284 5284 5284 5284 5285 5286 5284 5285 5286 5288 5291 5293 5294 5296 5299 5301 5301 5302 5305 5307 5310 5313 5316 5319 5325 5330 5334 5336 5338 5342 5345 5348 5354 5356 5357 5362 5368 5372 5377 5382 5386 5389 5393
5273 5273 5272 5272 5273 5274 5273 5273 5274 5277 5281 5283 5284 5286 5288 5290 5292 5292 5295 5298 5303 5306 5308 5311 5315 5319 5323 5326 5328 5331 5335 5338 5344 5349 5349 5351 5357 5360 5365 5370 5374 5377 5381
5262 5261 5261 5261 5262 5263 5263 5262 5262 5266 5270 5273 5275 5277 5279 5280 5282 5283 5285 5289 5293 5298 5300 5304 5308 5311 5315 5319 5322 5324 5328 5330 5334 5339 5341 5341 5345 5347 5353 5360 5363 5366 5370